| time (UTC) | temp F | wind direction | speed knots | gust knots | rain 1hr in | rain 24hr in | rain mn in | humidity % | barometer mb |
| 20260507231512 | 51 | 345 | 0.0 | 0.0 | 0.00 | 0.01 | 0.00 | 84 | 1017.9 |
| 20260507230532 | 51 | 260 | 0.9 | 2.6 | 0.00 | 0.01 | 0.00 | 84 | 1017.9 |
| 20260507225559 | 51 | 292 | 0.0 | 0.0 | 0.00 | 0.01 | 0.00 | 84 | 1018.0 |
| 20260507224520 | 51 | 260 | 0.0 | 0.0 | 0.00 | 0.01 | 0.00 | 84 | 1018.1 |
| 20260507223533 | 50 | 277 | 0.0 | 0.0 | 0.00 | 0.01 | 0.00 | 84 | 1018.0 |
| 20260507222552 | 51 | 298 | 0.0 | 0.0 | 0.00 | 0.01 | 0.00 | 84 | 1017.9 |
| 20260507221512 | 51 | 99 | 0.0 | 0.0 | 0.00 | 0.01 | 0.00 | 84 | 1017.9 |
| 20260507220533 | 51 | 287 | 0.0 | 0.0 | 0.00 | 0.01 | 0.00 | 83 | 1018.0 |
| 20260507215513 | 51 | 298 | 0.0 | 0.0 | 0.00 | 0.01 | 0.01 | 83 | 1017.8 |
| 20260507214312 | 52 | 232 | 0.0 | 0.0 | 0.00 | 0.01 | 0.01 | 81 | 1017.8 |
| 20260507213127 | 52 | 339 | 0.0 | 0.0 | 0.00 | 0.01 | 0.01 | 81 | 1017.5 |
| 20260507212212 | 53 | 219 | 2.6 | 2.6 | 0.00 | 0.01 | 0.01 | 79 | 1017.7 |
| 20260507211111 | 53 | 335 | 0.9 | 0.9 | 0.00 | 0.01 | 0.01 | 79 | 1017.6 |
| 20260507205928 | 54 | 74 | 2.6 | 2.6 | 0.00 | 0.01 | 0.01 | 77 | 1017.6 |
| 20260507204952 | 55 | 83 | 0.9 | 0.9 | 0.00 | 0.01 | 0.01 | 76 | 1017.5 |
| 20260507203932 | 54 | 69 | 0.0 | 0.9 | 0.00 | 0.01 | 0.01 | 77 | 1017.3 |
| 20260507202748 | 53 | 91 | 0.0 | 0.0 | 0.00 | 0.01 | 0.01 | 80 | 1017.4 |
| 20260507201751 | 53 | 334 | 0.0 | 0.0 | 0.00 | 0.01 | 0.01 | 80 | 1017.5 |
| 20260507200731 | 53 | 253 | 0.0 | 0.0 | 0.00 | 0.01 | 0.01 | 81 | 1017.3 |
| 20260507195528 | 53 | 247 | 0.0 | 0.0 | 0.00 | 0.01 | 0.01 | 80 | 1017.3 |
| 20260507194551 | 53 | 324 | 0.0 | 0.0 | 0.00 | 0.01 | 0.01 | 80 | 1017.3 |
| 20260507193511 | 54 | 229 | 3.5 | 4.3 | 0.00 | 0.01 | 0.01 | 81 | 1016.8 |
| 20260507192532 | 55 | 270 | 1.7 | 2.6 | 0.00 | 0.01 | 0.01 | 79 | 1017.1 |
| 20260507191559 | 55 | 338 | 0.9 | 1.7 | 0.00 | 0.01 | 0.01 | 79 | 1016.7 |
| 20260507190519 | 57 | 242 | 2.6 | 2.6 | 0.00 | 0.01 | 0.01 | 76 | 1016.7 |
| 20260507185548 | 57 | 194 | 0.9 | 1.7 | 0.00 | 0.01 | 0.01 | 77 | 1016.7 |
| 20260507184554 | 58 | 327 | 0.9 | 0.9 | 0.00 | 0.01 | 0.01 | 77 | 1017.0 |
| 20260507183532 | 59 | 84 | 0.0 | 0.0 | 0.00 | 0.01 | 0.01 | 71 | 1016.6 |
| 20260507182328 | 60 | 336 | 0.0 | 0.0 | 0.00 | 0.01 | 0.01 | 73 | 1016.3 |
| 20260507181352 | 60 | 336 | 0.0 | 0.0 | 0.00 | 0.01 | 0.01 | 70 | 1016.4 |
| 20260507180313 | 61 | 331 | 0.9 | 0.9 | 0.00 | 0.01 | 0.01 | 69 | 1016.3 |
| 20260507175128 | 61 | 121 | 0.0 | 0.0 | 0.00 | 0.01 | 0.01 | 70 | 1016.2 |
| 20260507174152 | 62 | 184 | 0.9 | 1.7 | 0.00 | 0.01 | 0.01 | 68 | 1015.9 |
| 20260507173113 | 63 | 215 | 0.9 | 1.7 | 0.00 | 0.01 | 0.01 | 68 | 1015.8 |
| 20260507171929 | 64 | 134 | 4.3 | 5.2 | 0.00 | 0.01 | 0.01 | 62 | 1015.5 |
| 20260507170952 | 64 | 164 | 2.6 | 4.3 | 0.00 | 0.01 | 0.01 | 62 | 1015.5 |
| 20260507165952 | 65 | 189 | 1.7 | 2.6 | 0.00 | 0.01 | 0.01 | 63 | 1015.6 |
| 20260507164728 | 65 | 165 | 4.3 | 5.2 | 0.00 | 0.01 | 0.01 | 63 | 1015.5 |
| 20260507163752 | 65 | 148 | 1.7 | 2.6 | 0.00 | 0.01 | 0.01 | 63 | 1015.5 |
| 20260507162712 | 65 | 152 | 4.3 | 5.2 | 0.00 | 0.01 | 0.01 | 63 | 1015.6 |
| 20260507161530 | 65 | 204 | 4.3 | 6.1 | 0.00 | 0.01 | 0.01 | 64 | 1015.9 |
| 20260507160553 | 65 | 143 | 4.3 | 6.1 | 0.00 | 0.01 | 0.01 | 64 | 1015.9 |
| 20260507155515 | 64 | 153 | 1.7 | 1.7 | 0.00 | 0.01 | 0.01 | 66 | 1015.9 |
| 20260507154329 | 64 | 126 | 3.5 | 5.2 | 0.00 | 0.01 | 0.01 | 67 | 1015.8 |
| 20260507153352 | 65 | 163 | 2.6 | 2.6 | 0.00 | 0.01 | 0.01 | 64 | 1015.5 |
| 20260507152312 | 65 | 123 | 0.9 | 1.7 | 0.00 | 0.01 | 0.01 | 63 | 1015.5 |
| 20260507151232 | 65 | 71 | 0.9 | 0.9 | 0.00 | 0.01 | 0.01 | 64 | 1015.8 |
| 20260507150256 | 65 | 359 | 1.7 | 1.7 | 0.00 | 0.01 | 0.01 | 65 | 1015.8 |
| 20260507145217 | 65 | 359 | 0.9 | 0.9 | 0.00 | 0.01 | 0.01 | 68 | 1015.7 |
| 20260507144340 | 65 | 358 | 2.6 | 2.6 | 0.00 | 0.01 | 0.01 | 67 | 1015.8 |
| 20260507143305 | 64 | 27 | 0.9 | 1.7 | 0.00 | 0.01 | 0.01 | 65 | 1015.7 |
| 20260507142245 | 66 | 89 | 0.9 | 0.9 | 0.00 | 0.01 | 0.01 | 64 | 1015.9 |
| 20260507141129 | 65 | 133 | 1.7 | 2.6 | 0.00 | 0.01 | 0.01 | 64 | 1015.9 |
| 20260507140133 | 65 | 63 | 0.0 | 0.9 | 0.00 | 0.01 | 0.01 | 67 | 1015.9 |
| 20260507135201 | 65 | 79 | 0.0 | 0.9 | 0.00 | 0.01 | 0.01 | 67 | 1015.8 |
| 20260507134201 | 66 | 145 | 0.9 | 1.7 | 0.00 | 0.01 | 0.01 | 66 | 1016.0 |
| 20260507133149 | 65 | 95 | 0.0 | 0.9 | 0.00 | 0.01 | 0.01 | 66 | 1015.8 |
| 20260507132152 | 64 | 352 | 0.0 | 0.0 | 0.00 | 0.01 | 0.01 | 66 | 1015.6 |
| 20260507131112 | 64 | 255 | 2.6 | 2.6 | 0.00 | 0.01 | 0.01 | 66 | 1015.9 |
| 20260507125929 | 65 | 251 | 2.6 | 2.6 | 0.00 | 0.01 | 0.01 | 67 | 1016.0 |
| 20260507124952 | 65 | 62 | 0.9 | 1.7 | 0.00 | 0.01 | 0.01 | 66 | 1015.8 |
| 20260507123914 | 66 | 340 | 1.7 | 1.7 | 0.00 | 0.01 | 0.01 | 64 | 1015.9 |
| 20260507122749 | 66 | 310 | 2.6 | 2.6 | 0.00 | 0.01 | 0.01 | 64 | 1015.8 |
| 20260507121753 | 67 | 71 | 0.9 | 2.6 | 0.00 | 0.01 | 0.01 | 64 | 1015.8 |
| 20260507120713 | 66 | 277 | 1.7 | 1.7 | 0.00 | 0.01 | 0.01 | 67 | 1015.9 |
| 20260507115529 | 66 | 103 | 2.6 | 2.6 | 0.00 | 0.01 | 0.01 | 64 | 1016.2 |
| 20260507114552 | 65 | 346 | 1.7 | 1.7 | 0.01 | 0.01 | 0.01 | 70 | 1016.0 |
| 20260507113533 | 63 | 262 | 3.5 | 5.2 | 0.01 | 0.01 | 0.01 | 71 | 1016.0 |
| 20260507112329 | 62 | 251 | 4.3 | 5.2 | 0.01 | 0.01 | 0.01 | 73 | 1016.5 |
| 20260507111352 | 61 | 348 | 0.9 | 0.9 | 0.01 | 0.01 | 0.01 | 77 | 1016.3 |
| 20260507110313 | 61 | 348 | 0.9 | 1.7 | 0.01 | 0.01 | 0.01 | 80 | 1016.4 |
| 20260507105129 | 62 | 347 | 0.9 | 1.7 | 0.01 | 0.01 | 0.01 | 78 | 1016.4 |
| 20260507104212 | 62 | 264 | 3.5 | 4.3 | 0.00 | 0.00 | 0.00 | 74 | 1016.0 |
| 20260507103113 | 62 | 337 | 3.5 | 4.3 | 0.00 | 0.00 | 0.00 | 73 | 1016.3 |
| 20260507101948 | 62 | 301 | 4.3 | 4.3 | 0.00 | 0.00 | 0.00 | 73 | 1016.2 |
| 20260507100953 | 63 | 289 | 3.5 | 4.3 | 0.00 | 0.00 | 0.00 | 73 | 1015.9 |
| 20260507095913 | 64 | 275 | 4.3 | 4.3 | 0.00 | 0.00 | 0.00 | 72 | 1015.8 |
| 20260507094729 | 64 | 79 | 0.0 | 0.9 | 0.00 | 0.00 | 0.00 | 70 | 1016.0 |
| 20260507093753 | 64 | 3 | 1.7 | 1.7 | 0.00 | 0.00 | 0.00 | 70 | 1015.8 |
| 20260507092753 | 63 | 90 | 2.6 | 2.6 | 0.00 | 0.00 | 0.00 | 72 | 1015.7 |
| 20260507091529 | 64 | 54 | 0.0 | 0.0 | 0.00 | 0.00 | 0.00 | 71 | 1015.8 |
| 20260507090553 | 63 | 107 | 0.9 | 0.9 | 0.00 | 0.00 | 0.00 | 71 | 1015.5 |
| 20260507085513 | 63 | 342 | 0.0 | 0.0 | 0.00 | 0.00 | 0.00 | 72 | 1015.3 |
| 20260507084330 | 62 | 337 | 0.0 | 0.9 | 0.00 | 0.00 | 0.00 | 72 | 1015.2 |
| 20260507083353 | 63 | 152 | 0.9 | 1.7 | 0.00 | 0.00 | 0.00 | 72 | 1015.3 |
| 20260507082313 | 62 | 220 | 3.5 | 5.2 | 0.00 | 0.00 | 0.00 | 73 | 1015.3 |
| 20260507081129 | 62 | 337 | 0.9 | 1.7 | 0.00 | 0.00 | 0.00 | 74 | 1015.2 |
| 20260507080153 | 61 | 336 | 5.2 | 6.1 | 0.00 | 0.00 | 0.00 | 74 | 1015.1 |
| 20260507075113 | 61 | 339 | 4.3 | 5.2 | 0.00 | 0.00 | 0.00 | 75 | 1015.3 |
| 20260507073929 | 61 | 349 | 5.2 | 7.0 | 0.00 | 0.00 | 0.00 | 74 | 1015.1 |
| 20260507072953 | 61 | 81 | 0.9 | 0.9 | 0.00 | 0.00 | 0.00 | 74 | 1014.9 |
| 20260507071913 | 61 | 131 | 1.7 | 1.7 | 0.00 | 0.00 | 0.00 | 73 | 1014.9 |
| 20260507070938 | 61 | 86 | 2.6 | 2.6 | 0.00 | 0.00 | 0.00 | 74 | 1014.8 |
| 20260507070001 | 62 | 84 | 0.9 | 0.9 | 0.00 | 0.00 | 0.00 | 73 | 1014.8 |
| 20260507065025 | 62 | 82 | 1.7 | 1.7 | 0.00 | 0.00 | 0.00 | 74 | 1014.7 |
| 20260507063932 | 61 | 53 | 2.6 | 4.3 | 0.00 | 0.00 | 0.00 | 75 | 1014.8 |
| 20260507062728 | 62 | 321 | 0.9 | 0.9 | 0.00 | 0.00 | 0.00 | 72 | 1014.8 |
| 20260507061812 | 61 | 120 | 1.7 | 2.6 | 0.00 | 0.00 | 0.00 | 75 | 1014.6 |
| 20260507060732 | 60 | 129 | 1.7 | 1.7 | 0.00 | 0.00 | 0.00 | 77 | 1014.7 |
| 20260507055528 | 59 | 87 | 1.7 | 2.6 | 0.00 | 0.00 | 0.00 | 79 | 1014.7 |
| 20260507054552 | 59 | 67 | 0.9 | 0.9 | 0.00 | 0.00 | 0.00 | 78 | 1013.9 |
| 20260507053512 | 59 | 99 | 0.9 | 0.9 | 0.00 | 0.00 | 0.00 | 78 | 1014.3 |
| 20260507052328 | 59 | 100 | 0.0 | 0.0 | 0.00 | 0.00 | 0.00 | 79 | 1013.8 |
| 20260507051352 | 59 | 59 | 0.0 | 0.0 | 0.00 | 0.00 | 0.00 | 79 | 1014.1 |
| 20260507050312 | 60 | 73 | 0.0 | 0.9 | 0.00 | 0.00 | 0.00 | 78 | 1014.1 |
| 20260507045128 | 58 | 91 | 0.0 | 0.0 | 0.00 | 0.00 | 0.00 | 82 | 1013.6 |
| 20260507044152 | 57 | 60 | 0.0 | 0.0 | 0.00 | 0.00 | 0.00 | 83 | 1013.7 |
| 20260507043112 | 56 | 61 | 0.0 | 0.0 | 0.00 | 0.00 | 0.00 | 84 | 1013.6 |
| 20260507041928 | 56 | 59 | 0.0 | 0.0 | 0.00 | 0.00 | 0.00 | 84 | 1013.4 |
| 20260507040952 | 56 | 17 | 0.0 | 0.0 | 0.00 | 0.00 | 0.00 | 84 | 1013.4 |
| 20260507035933 | 55 | 338 | 0.0 | 0.0 | 0.00 | 0.00 | 0.00 | 84 | 1013.1 |
| 20260507034728 | 56 | 55 | 0.0 | 0.0 | 0.00 | 0.00 | 0.00 | 83 | 1013.0 |
| 20260507033752 | 56 | 351 | 0.0 | 0.0 | 0.00 | 0.00 | 0.00 | 83 | 1013.4 |
| 20260507032712 | 56 | 340 | 0.9 | 0.9 | 0.00 | 0.00 | 0.00 | 82 | 1012.8 |
| 20260507031528 | 57 | 180 | 0.9 | 0.9 | 0.00 | 0.00 | 0.00 | 81 | 1012.8 |
| 20260507030552 | 57 | 286 | 1.7 | 1.7 | 0.00 | 0.00 | 0.00 | 80 | 1013.0 |
| 20260507025512 | 57 | 111 | 1.7 | 1.7 | 0.00 | 0.00 | 0.00 | 80 | 1012.9 |
| 20260507024348 | 57 | 49 | 1.7 | 1.7 | 0.00 | 0.00 | 0.00 | 80 | 1012.9 |
| 20260507023352 | 58 | 23 | 0.9 | 1.7 | 0.00 | 0.00 | 0.00 | 79 | 1012.6 |
| 20260507022332 | 58 | 94 | 0.9 | 1.7 | 0.00 | 0.00 | 0.00 | 78 | 1012.7 |
| 20260507021148 | 58 | 131 | 5.2 | 7.0 | 0.00 | 0.00 | 0.00 | 78 | 1012.5 |
| 20260507020152 | 58 | 128 | 6.1 | 7.8 | 0.00 | 0.00 | 0.00 | 78 | 1012.6 |
| 20260507015112 | 58 | 92 | 3.5 | 4.3 | 0.00 | 0.00 | 0.00 | 79 | 1012.7 |
| 20260507013928 | 58 | 69 | 6.1 | 8.7 | 0.00 | 0.00 | 0.00 | 79 | 1012.6 |
| 20260507012952 | 58 | 96 | 0.9 | 0.9 | 0.00 | 0.00 | 0.00 | 78 | 1012.6 |
| 20260507011912 | 58 | 118 | 10.4 | 12.2 | 0.00 | 0.00 | 0.00 | 79 | 1012.3 |
| 20260507010932 | 58 | 89 | 2.6 | 2.6 | 0.00 | 0.00 | 0.00 | 79 | 1012.1 |
| 20260507010020 | 57 | 91 | 2.6 | 5.2 | 0.00 | 0.00 | 0.00 | 80 | 1012.4 |
| 20260507004920 | 57 | 70 | 2.6 | 2.6 | 0.00 | 0.00 | 0.00 | 80 | 1012.5 |
| 20260507003944 | 57 | 50 | 1.7 | 2.6 | 0.00 | 0.00 | 0.00 | 80 | 1012.4 |
| 20260507002952 | 58 | 45 | 3.5 | 4.3 | 0.00 | 0.00 | 0.00 | 79 | 1011.9 |
| 20260507001912 | 58 | 143 | 7.0 | 7.8 | 0.00 | 0.00 | 0.00 | 78 | 1011.8 |
| 20260507000748 | 59 | 149 | 4.3 | 7.0 | 0.00 | 0.00 | 0.00 | 77 | 1012.2 |
| 20260506235752 | 59 | 142 | 5.2 | 6.1 | 0.00 | 0.00 | 0.00 | 77 | 1012.3 |
| 20260506234712 | 59 | 104 | 1.7 | 1.7 | 0.00 | 0.00 | 0.00 | 76 | 1012.3 |
| 20260506233528 | 59 | 140 | 4.3 | 5.2 | 0.00 | 0.00 | 0.00 | 76 | 1012.2 |
| 20260506232612 | 60 | 152 | 6.1 | 7.0 | 0.00 | 0.00 | 0.00 | 75 | 1012.2 |